Location: ???????
(55.4362°N, 38.1183°E)
Time: 22:53:18
(UTC+00:00)

Cosmos 1455 Rocket - Pass Details

Date: 17 June 2021
Orbit: 604 x 630 km, 82.5° (Epoch: 05 August)

Event Time Altitude Azimuth Distance (km) Brightness Sun altitude
Rises 19:03:55 0° 344° (NNW) 2,927 8.3 -5.4°
Reaches altitude 10° 19:06:13 10° 339° (NNW) 2,018 7.4 -5.5°
Maximum altitude 19:10:30 48° 266° (W) 834 4.0 -5.8°
Drops below altitude 10° 19:14:47 10° 192° (SSW) 2,008 5.3 -6.2°
Enters shadow 19:16:43 - 188° (S) 2,772 5.9 -6.3°
